Regional Weather Roundup
Issued by NWS

Home | Current Version | Previous Version | Text Only | Print | Product List | Glossary Off
Versions: 1 2 3 4 5 6 7 8 9 10 11 12 13 14 15 16 17 18 19 20 21 22 23 24 25 26 27 28 29 30 31 32 33 34 35 36 37 38 39 40 41 42 43 44 45 46 47 48 49 50

000
ASUS43 KLMK 301510
RWRKY
KENTUCKY REGIONAL WEATHER ROUNDUP
NATIONAL WEATHER SERVICE LOUISVILLE KY
1100 AM EDT SAT JUL 30 2016

NOTE "FAIR" INDICATES FEW OR NO CLOUDS BELOW 12,000 FEET
WITH NO SIGNIFICANT WEATHER AND/OR OBSTRUCTIONS TO VISIBILITY.

KYZ001>023-026-027-061>063-070>075-301600-
WESTERN AND SOUTH CENTRAL KENTUCKY

CITY           SKY/WX    TMP DP  RH WIND       PRES   REMARKS
PADUCAH        PTSUNNY   77  71  82 SW3       29.98F
HENDERSON      MOSUNNY   81  70  69 NW5       29.97S
OWENSBORO      PTSUNNY   79  74  84 SW6       29.99S HAZE
HOPKINSVILLE   PTSUNNY   78  71  81 W6        30.01R
BOWLING GREEN  CLOUDY    78  71  79 SW8       30.01S
GLASGOW        CLOUDY    76  73  91 W5        30.02R
$$

KYZ024-025-028>034-038-045-046-053-301600-
NORTH CENTRAL KENTUCKY

CITY           SKY/WX    TMP DP  RH WIND       PRES   REMARKS
LOUISVILLE/SDF MOSUNNY   81  70  69 CALM      29.98F
LOUISVILLE/LOU MOSUNNY   79  70  74 CALM      29.99S
FORT KNOX      PTSUNNY   78  71  80 VRB2      29.99S
$$

KYZ035>037-039>044-047>052-055>060-089>105-301600-
NORTHEAST KENTUCKY

CITY           SKY/WX    TMP DP  RH WIND       PRES   REMARKS
LEXINGTON      CLOUDY    78  71  79 W7        30.02R
COVINGTON      CLOUDY    76  71  85 W3        29.99S
FRANKFORT      PTSUNNY   78  72  81 SW6       30.00R
$$

KYZ054-064>069-076>088-106>120-301600-
SOUTHEAST KENTUCKY

CITY           SKY/WX    TMP DP  RH WIND       PRES   REMARKS
JACKSON        CLOUDY    74  70  87 VRB5      30.04R
LONDON         CLOUDY    76  69  79 SW6       30.05R
SOMERSET       CLOUDY    73  72  94 W7        30.05R
MIDDLESBORO    CLOUDY    76  72  88 S5        30.06S
MONTICELLO     CLOUDY   N/A N/A N/A NW10      30.06R
$$





USA.gov is the U.S. government's official web portal to all federal, state and local government web resources and services.